Погода в Кыркагаче

Турция     39°06′20″N   27°40′15″E
темп.,
°C
ветер,
м/с
пор.,
м/с
влажн.,
%
обл.,
%
осадки,
мм/ч
давл.,
гПа
погр.,
м
20 апреля, вт
вт2000:00+10ююз11821 0.1 101212
03:00+9ю22860 0.1 101116
06:00+8ююз22880 0.0 101215
09:00+12ююз24710 0.0 1014470
12:00+17юз464678 0.1 10142258
15:00+17з564176 0.1 10132200
18:00+16зсз55440 0.0 10141272
21:00+11зсз22680 0.0 101611
21 апреля, ср
ср2100:00+9юз01780 0.0 101710
03:00+8с11810 0.0 101810
06:00+7ссв11830 0.0 101810
09:00+12юв11632 0.0 1019297
12:00+17ююз1141100 0.0 10181285
15:00+18ю2336100 0.0 10182071
18:00+18зсз234241 0.0 10171141
21:00+12ссз325822 0.0 101924
22 апреля, чт
чт2200:00+10с22723 0.0 102015
03:00+9с11740 0.0 102010
06:00+8ссв11760 0.0 102110
09:00+13с11580 0.0 1022303
12:00+18зюз11380 0.0 10221472
15:00+20ссв01300 0.0 10201980
18:00+20ссв11305 0.0 10191949
21:00+14с22537 0.0 102015
23 апреля, пт
пт2300:00+12с2257100 0.0 102113
03:00+11ссв116010 0.0 102010
06:00+11с016177 0.0 101910
09:00+15ю1152100 0.0 1020222
12:00+20ююз2339100 0.0 1019843
15:00+22ююв2334100 0.0 10181375
18:00+22ююв2241100 0.0 1016497
21:00+17св115268 0.0 101611
24 апреля, сб
сб2400:00+16с1156100 0.0 101511
03:00+16сз2255100 0.0 101519
06:00+15ссв3460100 0.0 101468
09:00+16с3364100 0.0 1012197
12:00+18с5459100 0.0 1015450
15:00+15св4579100 2.3 1015369
18:00+16ссз247997 0.2 1013224
21:00+13с349180 0.2 101492